Weather in Leontyevo

Russia / Kostroma Oblast     58°10′29″N   44°29′59″E
temp.,
°C
wind,
m/s
gust,
m/s
humid.,
%
clouds,
%
prec.,
mm/h
press.,
hPa
HPBL,
m
18 january, mon
mon1800:00−23w119555 0.0 101820
03:00−23sw229728 0.0 101921
06:00−23sw229915 0.0 101820
09:00−23sw379835 0.0 1019136
12:00−18sw239597 0.0 1019188
15:00−18sw129794 0.1 101953
18:00−20sw2210096 0.0 101821
21:00−20w129996 0.1 102020
19 january, tue
tue1900:00−19sw139891 0.1 1020112
03:00−21wsw119996 0.1 101920
06:00−21s1299100 0.0 101920
09:00−19sw1298100 0.1 101947
12:00−17ssw129390 0.1 1018227
15:00−17ssw119795 0.1 101720
18:00−18w119886 0.1 101720
21:00−19wsw119985 0.1 101720
20 january, wed
wed2000:00−18sw119886 0.1 101623
03:00−19w229883 0.1 101626
06:00−19w129870 0.0 101620
09:00−18wsw229876 0.1 101637
12:00−14w259485 0.1 1016220
15:00−14w259688 0.1 1016199
18:00−15w379792 0.1 1016187
21:00−15w369688 0.1 1017196
21 january, thu
thu2100:00−15w369690 0.1 1017206
03:00−17w369785 0.1 1018148
06:00−19wsw259984 0.0 1017100
09:00−17sw379792 0.1 1017201
12:00−14ssw3693100 0.0 1015244
15:00−13s4991100 0.0 1013326
18:00−12ssw41095100 1.6 1010678
21:00−11ssw3895100 3.1 1008499
22 january, fri
fri2200:00−10sw2796100 1.1 1006366
03:00−9ssw2496100 2.1 1005196
06:00−9s1197100 1.0 100522
09:00−9e1297100 1.4 100645
12:00−6ese2495100 0.8 1006235
15:00−6ene3596100 1.9 1007257
18:00−9ene269699 0.3 1010182
21:00−10e369698 0.4 1011186